Hourly Data Report for October 29, 2015

All times are specified in Local Standard Time (LST). Add 1 hour to adjust for Daylight Saving Time where and when it is observed.

EUREKA CLIMATE
NUNAVUT

79°59'21.000" N
85°56'02.000" W
10.00 m
2401199
71613
NEK

Download Data

Hourly Data (October 2015)
Hourly Data Report for October 29, 2015
Temp Definition
°C
Dew Point Temp Definition
°C
Rel Hum Definition
%
Wind Dir Definition
10's deg

Wind Spd Definition
km/h
Visibility Definition
km
Stn Press Definition
kPa
Hmdx Definition


Wind Chill Definition


Weather Definition


TIME
00:00 -29.6 -32.2 78 12 6   101.33   -36 LegendNANA
01:00 -30.2 -32.8 78 11 7   101.31   -38 LegendNANA
02:00 -29.9 -32.7 77 12 8   101.32   -38 LegendNANA
03:00 -29.9 -32.7 77 11 4   101.33   -34 LegendNANA
04:00 -29.7 -32.4 77 8 3   101.33   -33 LegendNANA
05:00 -28.1 -30.5 79 36 4   101.30   -32 LegendNANA
06:00 -29.8 -32.5 77 12 4   101.27   -34 LegendNANA
07:00 -29.0 -31.4 80 10 9   101.24   -37 LegendNANA
08:00 -29.7 -32.3 78 11 12   101.20   -40 LegendNANA
09:00 -28.8 -31.4 78 11 9   101.19   -37 LegendNANA
10:00 -30.2 -32.9 77 11 10   101.20   -39 LegendNANA
11:00 -28.8 -31.2 79 4 5   101.18   -34 LegendNANA
12:00 -29.0 -31.6 78 7 3   101.17   -32 LegendNANA
13:00 -30.4 -33.1 77 11 13   101.18   -41 LegendNANA
14:00 -29.4 -31.9 79 6 3   101.20   -33 LegendNANA
15:00 -29.4 -32.0 78 9 4   101.18   -34 LegendNANA
16:00 -29.0 -31.6 78 9 8   101.18   -37 LegendNANA
17:00 -29.2 -31.9 77 10 6   101.16   -36 LegendNANA
18:00 -29.7 -32.4 77 7 5   101.12   -35 LegendNANA
19:00 -29.8 -32.5 77 9 4   101.10   -34 LegendNANA
20:00 -29.8 -32.6 77 10 3   101.08   -33 LegendNANA
21:00 -30.7 -33.5 76 10 2   101.04   -33 LegendNANA
22:00 -30.7 -33.4 77 13 5   100.98   -36 LegendNANA
23:00 -30.7 -33.5 76 36 4   100.90   -35 LegendNANA

Notes on Data Quality.

Legend

  • E = Estimated
  • M = Missing
  • NA = Not Available
  • ‡ = Partner data that is not subject to review by the National Climate Archives
Date modified: